Simultaneous Nadir Overpasses (SNOs) Predictions

Prediction of SNOs between AQUA and METOP-C Satellite Orbit:

Table of predicted SNOs for the next 14.0 days since TLE Epoch: 2/18/2023
Index Date (AQUA) Time (AQUA) Lat,Lon (AQUA) SZA (AQUA ) Date (METOP-C) Time (METOP-C) Lat,Lon (METOP-C) SZA (METOP-C ) Distance(km) Time Diff (sec)
1 02/18/2023 23:54:54 -74.21, -3.24 94.29 02/18/2023 23:53:47 -74.18, -3.30 94.30 3.24 67
2 02/19/2023 00:44:22 74.29, 164.22 85.79 02/19/2023 00:44:24 74.27, 164.27 85.77 2.13 2
3 02/19/2023 01:33:51 -74.53, -28.74 93.96 02/19/2023 01:35:02 -74.50, -27.81 94.03 27.72 71
4 02/21/2023 18:38:04 74.22,-104.03 84.73 02/21/2023 18:37:26 74.21,-104.15 84.73 3.61 38
5 02/21/2023 19:27:30 -74.31, 63.39 95.19 02/21/2023 19:28:07 -74.30, 63.41 95.21 1.49 37
6 02/24/2023 12:31:42 74.04, -12.01 83.52 02/24/2023 12:30:31 73.98, -12.96 83.52 29.86 71
7 02/24/2023 13:21:11 -74.28, 155.07 96.23 02/24/2023 13:21:08 -74.28, 155.10 96.24 1.08 3
8 02/24/2023 14:10:38 74.32, -37.38 83.80 02/24/2023 14:11:46 74.30, -37.49 83.78 3.76 68
9 02/27/2023 07:14:49 -74.24,-113.22 97.31 02/27/2023 07:14:08 -74.24,-113.25 97.30 1.11 41
10 02/27/2023 08:04:17 74.33, 54.21 82.78 02/27/2023 08:04:45 74.31, 54.27 82.76 2.95 28
11 03/02/2023 01:08:24 -74.08, -21.22 98.53 03/02/2023 01:07:12 -74.04, -22.00 98.52 24.31 72
12 03/02/2023 01:57:54 74.28, 145.95 81.68 03/02/2023 01:57:46 74.25, 145.88 81.67 3.32 8



Historial Predications of SNOs between AQUA and METOP-C
